Temp
8 8 8 7 7 7 7 7 6 6 6 5 5 5 5 5 5 5 4 4 4 4 4 3 3 3 3 3 3 2 3 3 3 3 4 4 4 4 4 4 4 4
8 8 7 7 7 7 7 7 6 6 6 5 5 5 5 5 5 5 4 4 4 4 4 3 3 3 3 3 2 2 3 3 2 3 3 4 4 4 4 4 4 4
8 8 8 7 7 7 7 7 6 6 6 5 5 5 5 5 5 5 4 4 4 4 3 3 3 3 3 2 2 2 3 2 2 3 3 4 4 4 4 4 4 4
8 8 8 7 7 7 7 6 6 6 6 5 5 5 5 5 5 4 4 4 4 3 3 3 3 3 2 2 2 2 2 2 3 3 4 4 4 4 4 4 4 4
8 8 7 7 7 7 7 7 6 6 5 5 5 5 5 5 4 4 4 4 3 3 3 3 3 3 2 2 2 2 2 3 3 3 4 4 4 4 4 4 4 4
8 8 7 7 7 7 7 7 6 6 5 5 5 5 5 4 4 4 4 4 3 3 3 3 3 2 2 2 2 2 2 3 3 3 4 4 4 4 4 4 4 4
8 8 7 7 7 7 7 7 6 6 5 5 5 5 5 5 4 4 4 4 3 3 3 3 3 2 2 2 2 2 3 3 3 3 4 4 4 4 4 4 4 4
8 8 7 7 7 7 7 7 6 6 5 5 5 5 5 5 4 4 4 3 3 3 3 3 3 2 2 2 2 2 3 3 3 4 4 4 4 4 4 4 4 4
8 7 7 7 7 7 7 7 6 6 6 5 5 5 5 4 4 4 3 3 3 3 3 3 2 2 2 2 2 3 3 3 3 4 4 4 4 4 4 4 4 4
8 7 7 7 7 7 7 7 6 6 6 5 4 4 5 4 4 4 3 3 3 3 3 3 3 2 2 2 3 3 3 3 3 3 4 4 4 4 4 4 4 4
8 7 7 7 7 7 7 7 6 6 6 5 5 4 4 4 4 4 3 3 3 3 3 3 3 2 2 3 3 3 3 3 3 3 4 4 4 4 4 4 4 4
8 7 7 7 7 7 7 6 6 6 6 5 5 4 4 4 4 4 3 3 3 2 2 3 2 2 3 3 3 3 3 3 3 4 4 4 4 4 4 4 4 4
8 7 7 7 7 7 7 6 6 6 5 5 5 4 4 4 4 4 3 3 2 2 2 2 2 3 3 3 3 3 3 3 4 4 4 4 4 4 4 4 4 4
8 7 7 7 7 7 6 6 6 6 5 5 5 4 4 4 4 3 3 3 2 2 2 2 3 3 3 3 3 3 3 4 4 4 4 4 4 4 4 4 4 3
8 7 7 7 7 6 6 6 6 6 5 5 5 4 4 4 4 3 3 3 2 2 2 3 3 3 3 3 3 3 4 4 4 4 4 4 4 4 4 4 3 3
8 7 7 7 6 6 6 6 6 6 6 5 5 4 4 4 4 3 3 3 3 3 3 3 3 3 3 3 3 4 4 4 4 4 4 4 4 4 4 3 3 3
7 7 7 6 6 6 6 6 6 6 6 5 5 4 4 4 4 4 3 3 3 3 3 3 3 3 3 3 4 4 4 4 4 4 4 4 4 4 3 3 3 3
7 7 7 6 6 6 6 6 6 6 6 5 5 4 4 4 4 4 3 3 3 3 3 3 3 3 3 4 4 4 4 4 4 4 4 4 4 3 3 3 3 3
7 7 7 6 6 6 5 6 6 6 6 5 5 4 4 4 4 4 3 3 3 3 3 3 3 3 3 4 4 4 4 4 4 4 4 3 3 3 3 3 3 3
8 7 7 6 6 5 5 6 6 6 5 5 5 5 4 4 4 4 3 3 3 3 3 3 3 3 4 4 4 4 4 4 4 4 3 3 3 3 3 3 3 3
8 7 7 6 6 5 6 6 6 6 5 5 5 5 4 4 4 4 3 3 3 3 3 3 3 4 4 4 4 4 4 4 4 3 3 3 3 3 3 3 3 2
8 8 7 7 6 6 6 6 6 6 5 5 5 5 4 4 4 4 3 3 3 3 3 3 4 4 4 4 4 4 4 3 3 3 3 3 3 3 3 2 2 2
8 8 7 7 6 6 6 6 6 6 5 5 5 5 5 4 4 4 4 3 3 3 4 4 4 4 4 4 4 4 3 3 3 3 3 3 3 3 2 2 2 2
8 8 7 7 6 6 6 6 6 5 5 5 5 5 4 4 4 4 4 4 4 4 4 4 4 4 4 3 3 3 3 3 3 3 3 3 3 2 2 2 2 2
8 8 7 7 6 6 6 6 6 5 5 5 4 4 4 4 4 4 4 4 4 4 4 4 4 4 4 3 3 3 3 3 3 3 3 3 2 2 2 2 1 1
7 7 7 7 6 6 6 5 5 5 5 5 4 4 4 4 4 4 4 4 4 4 4 4 4 4 4 3 3 3 3 3 3 3 2 2 2 2 2 2 1 1
Height
3134 3136 3138 3139 3140 3142 3143 3144 3145 3147 3148 3148 3149 3150 3150 3150 3151 3152 3152 3153 3153 3154 3154 3154 3155 3155 3155 3155 3156 3157 3158 3158 3160 3160 3162 3163 3163 3163 3164 3164 3164 3165
3132 3134 3135 3136 3138 3139 3141 3142 3143 3144 3145 3146 3147 3147 3148 3148 3149 3150 3150 3151 3151 3152 3152 3152 3153 3153 3153 3154 3154 3155 3156 3157 3158 3159 3160 3162 3162 3162 3162 3163 3163 3163
3129 3131 3133 3134 3135 3137 3139 3140 3141 3142 3143 3144 3145 3145 3145 3146 3147 3148 3148 3149 3149 3149 3150 3150 3151 3151 3152 3152 3153 3154 3155 3156 3158 3159 3160 3161 3161 3161 3161 3161 3161 3162
3127 3129 3130 3132 3134 3135 3136 3137 3139 3139 3140 3141 3142 3143 3143 3144 3145 3146 3146 3147 3147 3147 3148 3148 3149 3150 3150 3151 3152 3153 3154 3156 3157 3158 3159 3159 3159 3159 3160 3160 3160 3160
3125 3126 3128 3130 3131 3133 3134 3135 3136 3137 3138 3139 3140 3141 3141 3142 3143 3143 3144 3144 3145 3145 3146 3146 3147 3148 3149 3150 3151 3152 3153 3155 3156 3156 3157 3157 3157 3158 3158 3158 3158 3159
3122 3124 3125 3127 3129 3130 3132 3133 3133 3134 3135 3136 3138 3139 3139 3140 3141 3141 3142 3142 3142 3143 3144 3144 3145 3146 3147 3149 3150 3151 3152 3153 3154 3155 3155 3155 3156 3156 3156 3157 3157 3157
3119 3121 3123 3125 3126 3128 3129 3130 3131 3132 3132 3134 3136 3137 3137 3138 3139 3139 3139 3140 3140 3141 3142 3142 3143 3144 3145 3147 3148 3149 3150 3151 3152 3153 3154 3154 3154 3154 3155 3155 3155 3156
3116 3118 3120 3122 3124 3125 3126 3128 3128 3129 3130 3132 3133 3134 3135 3135 3136 3137 3137 3138 3138 3139 3139 3140 3141 3142 3144 3145 3147 3148 3149 3150 3151 3151 3152 3152 3152 3153 3153 3153 3154 3154
3113 3116 3118 3120 3121 3123 3124 3125 3126 3126 3127 3128 3129 3131 3133 3133 3134 3135 3135 3136 3136 3136 3137 3138 3139 3141 3142 3143 3145 3146 3147 3148 3149 3150 3150 3150 3151 3151 3151 3152 3152 3153
3110 3113 3115 3117 3119 3120 3122 3123 3123 3124 3125 3125 3126 3129 3131 3131 3132 3132 3133 3133 3134 3134 3135 3136 3137 3139 3140 3142 3143 3144 3146 3147 3147 3148 3148 3148 3149 3149 3150 3150 3151 3151
3108 3110 3112 3114 3116 3118 3119 3120 3121 3122 3122 3123 3124 3125 3127 3128 3129 3130 3130 3131 3132 3132 3133 3135 3136 3137 3138 3140 3141 3143 3144 3145 3145 3146 3146 3146 3147 3147 3148 3149 3149 3149
3105 3107 3110 3112 3114 3116 3117 3118 3119 3120 3120 3120 3121 3122 3124 3126 3126 3127 3128 3129 3130 3130 3132 3133 3134 3135 3137 3138 3140 3141 3142 3143 3143 3144 3144 3145 3145 3146 3146 3147 3147 3147
3102 3105 3107 3109 3111 3113 3114 3115 3117 3117 3118 3119 3121 3122 3123 3124 3124 3125 3126 3126 3128 3129 3130 3131 3132 3134 3135 3137 3138 3140 3140 3141 3141 3142 3142 3143 3143 3144 3144 3144 3144 3144
3100 3102 3105 3107 3109 3111 3112 3113 3114 3115 3117 3119 3120 3122 3122 3122 3123 3123 3123 3124 3125 3127 3128 3129 3131 3133 3134 3136 3137 3138 3139 3139 3139 3140 3140 3141 3141 3141 3142 3142 3142 3142
3097 3099 3102 3104 3106 3108 3109 3110 3111 3113 3115 3116 3117 3118 3119 3120 3120 3121 3121 3122 3123 3125 3126 3128 3130 3131 3133 3134 3135 3136 3137 3137 3137 3138 3138 3139 3139 3139 3139 3139 3139 3139
3093 3096 3099 3101 3103 3105 3107 3108 3109 3111 3112 3113 3114 3115 3116 3117 3118 3119 3119 3120 3121 3123 3125 3127 3128 3130 3131 3132 3133 3134 3134 3135 3135 3136 3136 3136 3137 3137 3137 3137 3137 3137
3090 3093 3096 3098 3101 3103 3104 3105 3107 3108 3110 3111 3112 3113 3114 3115 3116 3116 3117 3118 3120 3121 3123 3125 3127 3128 3129 3130 3131 3131 3132 3133 3133 3133 3134 3134 3134 3134 3134 3134 3134 3134
3087 3090 3093 3096 3098 3100 3102 3103 3104 3106 3107 3109 3110 3111 3112 3113 3113 3114 3115 3116 3118 3120 3122 3123 3125 3126 3127 3128 3129 3129 3130 3130 3131 3131 3131 3132 3132 3132 3132 3131 3131 3131
3084 3087 3090 3093 3095 3097 3099 3101 3102 3104 3105 3106 3108 3109 3110 3110 3111 3112 3113 3114 3116 3118 3120 3121 3122 3123 3125 3126 3126 3127 3128 3128 3128 3129 3129 3129 3129 3129 3129 3129 3128 3129
3081 3084 3087 3090 3092 3095 3096 3098 3099 3101 3103 3104 3105 3107 3107 3108 3109 3110 3111 3112 3114 3116 3117 3119 3120 3121 3122 3123 3124 3125 3125 3126 3126 3126 3127 3127 3127 3127 3126 3126 3126 3126
3078 3081 3084 3087 3089 3091 3093 3095 3097 3099 3100 3102 3103 3105 3105 3106 3107 3108 3109 3110 3111 3113 3115 3116 3117 3118 3120 3121 3122 3122 3123 3123 3124 3124 3124 3124 3124 3124 3124 3123 3123 3122
3075 3078 3081 3084 3086 3088 3090 3092 3094 3096 3098 3100 3101 3102 3103 3103 3104 3105 3106 3108 3109 3110 3112 3113 3114 3116 3117 3118 3119 3120 3120 3121 3121 3121 3121 3121 3121 3121 3121 3121 3120 3120
3072 3075 3078 3081 3083 3085 3087 3090 3092 3094 3096 3097 3098 3099 3100 3101 3102 3103 3104 3105 3106 3108 3109 3111 3112 3114 3115 3116 3117 3117 3118 3118 3118 3119 3119 3119 3119 3119 3119 3118 3118 3117
3069 3072 3075 3078 3081 3083 3085 3087 3089 3091 3093 3095 3096 3097 3098 3099 3100 3101 3102 3103 3104 3106 3107 3108 3110 3111 3113 3113 3114 3115 3115 3115 3116 3116 3116 3116 3116 3116 3116 3116 3115 3114
3066 3069 3072 3075 3078 3080 3081 3083 3085 3088 3090 3092 3093 3094 3095 3096 3097 3098 3099 3100 3102 3103 3105 3106 3108 3109 3110 3111 3111 3112 3112 3112 3113 3113 3113 3114 3114 3114 3113 3112 3111 3111
3063 3066 3069 3072 3075 3077 3079 3081 3083 3085 3088 3089 3090 3092 3093 3093 3094 3095 3097 3098 3099 3101 3103 3104 3105 3106 3108 3108 3109 3109 3109 3110 3110 3110 3111 3111 3111 3111 3110 3108 3108 3108
Wind_Speed
24 25 23 22 21 21 21 21 21 20 19 19 19 19 20 20 19 17 17 17 17 17 18 18 18 17 17 16 15 15 15 15 15 15 15 16 16 14 14 14 13 12
25 25 23 22 21 21 21 21 21 21 21 20 21 21 22 21 19 17 16 16 16 17 18 18 17 17 16 15 14 14 15 17 17 16 15 16 14 13 12 12 11 11
26 25 23 21 21 20 20 21 22 22 21 21 22 22 22 20 18 17 16 16 16 17 17 17 16 15 14 13 13 13 15 17 17 15 16 15 13 11 11 10 10 10
26 25 23 21 20 20 21 22 22 22 22 22 22 22 22 20 18 17 17 16 16 17 17 16 15 13 13 13 12 13 14 14 14 15 16 14 11 10 9 9 9 9
26 24 23 22 21 21 21 21 22 22 22 23 23 23 21 20 19 18 17 17 16 16 16 16 14 13 14 14 12 13 13 12 14 15 14 12 10 9 9 9 9 9
26 25 23 22 21 21 21 21 21 22 23 24 24 22 21 20 19 18 18 18 17 17 17 16 15 15 17 15 12 14 13 11 12 13 12 11 10 9 9 8 9 10
26 25 24 23 22 22 21 21 22 22 24 24 23 22 21 20 19 19 19 19 18 17 17 17 16 16 19 18 16 17 16 12 11 12 11 11 10 9 9 9 10 10
27 26 25 23 23 23 22 22 22 23 23 23 22 22 20 19 19 20 20 19 17 16 16 17 17 18 19 20 19 19 18 16 13 12 11 11 10 9 9 10 10 10
28 27 26 24 24 23 22 21 22 23 22 23 23 21 19 19 19 19 19 17 16 16 16 17 18 18 19 19 20 20 20 18 15 13 12 12 10 9 10 11 11 10
29 28 27 25 24 23 22 22 22 22 22 23 22 19 18 19 18 18 18 17 16 16 17 17 18 19 19 19 19 20 20 18 15 14 13 11 10 10 11 11 11 11
30 30 28 26 25 23 22 22 23 22 22 22 21 19 18 18 17 18 17 16 16 17 18 18 18 19 19 19 18 18 18 17 15 14 12 11 11 11 11 11 11 11
31 31 29 27 25 22 22 23 22 22 22 22 22 20 17 17 18 17 17 16 17 19 19 19 19 20 19 18 18 18 17 16 15 14 13 12 12 12 12 12 12 12
32 32 30 27 24 23 22 23 22 22 22 22 20 17 16 17 18 17 17 18 19 19 19 20 21 21 19 17 17 17 16 15 14 14 13 13 13 13 13 13 13 14
33 33 31 28 25 24 23 23 23 22 20 19 18 16 16 18 19 17 18 19 20 20 20 22 23 21 18 17 16 15 15 15 15 14 14 14 14 14 14 14 15 16
34 34 32 29 27 25 24 24 23 21 19 19 18 17 18 20 19 18 19 20 20 21 23 24 23 20 18 16 15 14 15 15 15 15 14 15 15 15 16 16 17 17
35 35 33 31 28 26 25 25 23 20 20 20 18 18 20 21 20 19 20 21 21 23 26 25 22 20 18 15 14 14 14 15 15 15 15 16 16 17 17 18 18 19
35 36 35 32 29 26 26 25 24 21 20 20 19 19 21 21 19 19 20 21 21 26 28 25 22 20 17 15 14 14 15 15 15 16 17 18 18 19 20 20 20 20
36 37 35 32 30 27 26 26 24 22 21 21 21 21 20 20 19 19 20 20 22 28 28 24 21 20 17 16 15 15 15 16 16 17 18 19 20 21 21 22 22 22
37 37 36 33 31 28 27 26 24 22 21 21 21 21 20 20 19 19 19 20 23 29 29 25 21 20 18 17 17 16 17 17 17 18 19 20 21 22 23 23 24 24
38 38 36 34 31 29 28 27 25 22 21 21 21 20 20 20 19 19 19 20 24 29 30 26 22 21 20 19 18 18 18 18 18 19 20 22 23 23 24 25 26 26
39 38 37 35 32 29 28 27 25 23 21 21 21 20 20 20 19 19 19 20 24 30 31 27 24 23 22 21 20 19 19 19 19 20 21 23 24 25 26 26 27 29
39 38 37 34 31 29 28 27 26 24 22 21 21 20 20 20 20 19 19 21 25 30 31 29 26 25 23 21 20 19 19 19 19 21 22 24 25 25 26 27 29 31
38 37 36 33 30 29 28 27 25 23 22 22 22 21 20 20 20 20 20 22 27 31 32 30 27 25 23 21 20 20 19 20 21 22 23 24 25 26 27 29 30 31
37 36 34 32 29 29 28 27 26 23 22 22 22 21 20 20 21 21 21 23 27 31 31 29 27 25 22 21 21 20 20 21 22 23 24 24 25 26 28 29 31 30
35 35 34 31 29 29 29 29 28 24 22 23 22 22 22 22 22 22 22 25 28 31 30 29 27 25 23 22 22 22 23 23 24 24 24 24 25 27 29 31 31 28
35 34 33 30 29 29 28 29 29 25 22 23 24 23 23 23 23 23 23 25 29 31 31 30 28 27 25 24 24 24 24 25 25 24 24 25 26 27 29 31 29 25
Wind_Direction
221 223 220 217 219 222 224 225 226 225 223 222 223 228 234 240 244 246 248 250 251 252 252 254 255 258 261 258 245 231 228 226 217 209 212 226 238 242 246 251 252 252
221 222 218 216 219 223 226 227 226 226 225 225 227 232 237 242 246 249 251 252 252 252 252 254 255 258 258 246 230 225 226 220 207 203 217 231 238 241 247 251 251 252
223 221 217 217 221 225 228 228 227 227 227 228 231 235 240 245 249 253 255 255 252 250 251 254 255 256 248 228 218 222 223 213 201 208 227 234 236 243 248 250 251 253
223 221 217 218 221 225 228 228 228 228 229 231 234 238 242 246 251 255 256 255 252 251 253 253 252 249 230 213 214 217 212 207 210 223 232 235 238 243 246 250 253 255
224 221 218 219 221 225 228 228 228 229 231 233 234 238 241 244 249 253 254 254 251 251 254 250 246 237 215 205 208 207 207 220 230 232 234 237 240 241 245 251 256 261
224 221 218 219 222 225 228 229 230 230 232 233 235 237 241 242 246 251 253 253 252 252 252 247 241 227 211 203 200 201 211 236 242 236 237 239 239 241 245 252 258 264
225 221 218 218 221 225 227 229 231 232 233 235 236 237 240 242 243 249 251 251 251 250 247 242 237 224 212 207 203 205 218 242 250 244 242 240 239 242 246 254 259 263
225 222 219 219 221 224 228 232 234 233 234 236 237 236 237 239 242 246 249 249 249 245 241 238 233 223 215 209 208 212 224 240 251 250 246 243 243 244 248 254 258 261
223 221 219 219 222 226 230 233 235 236 235 235 237 236 235 237 242 247 249 250 248 239 235 236 230 222 216 210 210 216 227 238 249 251 248 247 248 247 250 254 257 260
222 220 219 220 223 228 232 233 235 237 237 238 240 239 237 239 244 248 251 253 248 234 230 233 229 221 215 210 211 219 228 237 247 250 249 250 250 248 250 252 254 259
221 219 219 221 225 229 232 233 235 237 238 240 240 237 236 241 247 251 253 252 242 230 226 228 225 218 213 211 213 221 229 237 245 248 250 250 249 247 248 249 253 261
220 219 219 222 226 230 231 233 235 238 239 239 239 235 235 242 247 250 253 248 235 226 224 222 216 210 207 209 214 222 230 237 244 247 248 247 245 245 246 250 256 262
220 220 220 223 227 230 231 233 235 237 239 240 242 242 240 243 248 251 250 242 230 224 220 212 205 202 201 206 215 224 232 239 244 246 245 242 241 243 246 252 259 264
220 220 221 223 228 230 231 233 234 236 238 239 241 242 241 243 249 251 245 235 227 221 211 201 197 197 199 207 217 227 235 240 243 242 241 239 239 242 248 255 261 264
220 220 221 223 227 230 232 233 235 238 239 238 236 236 241 247 250 249 241 231 223 213 201 195 196 198 202 210 218 228 236 240 242 240 238 238 239 244 250 256 261 264
220 220 221 223 225 229 233 235 237 237 238 238 234 232 241 248 250 247 240 231 220 206 196 195 197 201 207 213 219 229 236 239 241 241 240 240 243 248 253 258 262 265
220 221 221 222 224 228 232 235 237 237 237 238 234 233 240 246 249 246 239 232 218 203 196 196 201 206 211 216 222 229 235 238 241 242 243 245 247 251 256 260 264 268
220 221 222 222 223 226 231 234 237 236 236 236 233 234 240 245 248 245 238 231 217 203 198 200 205 211 216 220 226 231 236 240 243 246 249 250 251 254 258 262 266 268
220 220 221 221 222 225 229 232 235 234 235 235 232 234 240 244 246 243 236 229 216 204 201 204 210 216 221 225 229 234 238 243 246 250 253 254 255 257 259 263 267 269
219 219 220 220 221 223 228 232 234 234 234 233 231 232 238 242 244 242 235 227 216 206 204 209 215 220 225 229 233 237 242 246 250 254 256 257 258 259 262 265 268 271
220 219 218 219 219 221 226 231 233 233 232 230 229 231 236 240 243 241 233 225 216 208 207 212 219 223 228 232 236 241 245 250 254 256 258 260 260 262 264 267 271 273
220 220 218 217 217 220 225 229 231 232 231 228 227 229 234 237 239 238 231 223 215 209 209 215 221 226 231 235 239 244 248 253 257 258 260 261 262 264 266 269 273 275
220 220 218 216 215 218 224 229 230 231 228 225 225 228 232 236 239 239 233 224 216 211 212 218 224 229 234 239 243 248 252 256 258 259 261 263 264 267 271 273 275 276
221 221 218 215 215 218 224 228 229 227 224 222 223 227 230 234 236 237 234 225 217 213 215 222 229 233 237 243 248 253 256 258 260 261 263 265 268 272 275 275 277 278
223 222 219 216 215 218 224 227 225 222 219 219 222 225 228 231 233 234 233 226 218 216 219 227 233 237 241 247 253 257 259 260 262 263 266 269 272 275 275 275 276 278
223 223 221 217 215 218 225 228 223 218 217 218 221 224 226 228 231 233 231 227 222 221 224 230 236 241 244 249 255 260 262 263 265 267 269 271 273 276 277 278 280 281